map of BWN home
BWN - Airport
Location
City:  Bandar Seri Begwan, Brunei Darussalam
Name:Bandar Seri Begwan International Airport
ICAO:WBSB
IATA:BWN

Details
Type:Airport (Aerodrome, Airfield)
Use:Public/Civil, International (customs port of entry)
Latitude:456'39"N (4.944200)
Longitude:11455'42"E (114.928353)
Datum:WGS 1984
Elevation:73 ft (22 m)
Variation:0.13W (WMM2015 magnetic declination)
-0.08 annual change
Runways:1
Longest:12000 × 150 ft (3658 × 45.5 m), paved

Time
Time Zone:UTC+8
Local Time:

Weather
METAR:WBSB 090900Z 26009KT 9999 FEW015 FEW016CB BKN300 31/25 Q1004 TEMPO 24016KT 5000 SHRA
TAF:WBSB 090450Z 0906/1012 26010KT 9999 FEW016 FEW017CB
BECMG 0911/0913 20002KT SCT014 FEW015CB BKN140
TEMPO 0912/0916 4000 TSRA

Related Locations
Nearby:
Farthest:SWUY: 12431 mi / 20006 km
Coari [Urucu], AM, BR

Find:

   beyond  
but within

Other Information
Maps:
NOTAMs:
Links:
Sources:

  
flag of Brunei Darussalam   

Sectional Chart

Flight Planning
at skyvector.com

Satellite Image

Google Maps Satellite view

 

Copyright © 2004-2016 Karl L. Swartz. All rights reserved.
The Great Circle Mapper name and logo are trademarks of the Great Circle Mapper.
All other trademarks mentioned herein belong to their respective owners.
Please see credits for attibutions and further copyright information.

  Follow gcmap on Facebook Follow gcmap on Twitter Follow gcmap on Google+ GCmap on LinkedIn

hCard Microformat

Geo Microformat